Vorticity
nan nan nan nan nan nan nan nan nan nan nan nan nan nan nan nan nan nan nan nan nan nan
nan 9 8 9 11 9 9 9 10 19 19 14 12 10 7 8 10 10 10 9 8 nan
nan 9 10 10 7 8 11 10 13 19 21 14 11 11 8 8 10 8 7 12 11 nan
nan 10 9 9 8 9 8 10 11 14 24 22 9 9 9 9 11 9 8 10 11 nan
nan 12 9 7 7 9 10 10 9 16 22 26 15 11 8 8 10 11 9 10 10 nan
nan 9 12 10 9 9 10 10 11 11 14 27 27 14 11 10 10 11 10 11 10 nan
nan 9 10 11 10 9 11 7 10 9 12 12 31 27 12 12 11 11 11 11 10 nan
nan 10 9 10 11 10 9 10 12 7 8 12 14 24 24 14 11 10 9 9 10 nan
nan 10 10 10 11 10 9 9 9 11 8 9 2 6 29 27 13 12 10 9 9 nan
nan 10 10 10 10 10 9 11 8 10 9 10 2 6 20 21 14 12 14 13 11 nan
nan 9 10 10 11 11 10 8 11 10 9 9 2 5 16 20 14 10 11 10 12 nan
nan 10 11 10 10 11 11 9 8 8 11 9 6 7 14 14 11 11 9 9 10 nan
nan 10 10 11 11 11 10 11 10 10 9 8 9 7 13 15 14 10 9 9 9 nan
nan nan nan nan nan nan nan nan nan nan nan nan nan nan nan nan nan nan nan nan nan nan
CAPE
17 13 9 8 9 10 10 4 2 13 149 146 106 35 26 28 9 7 0 0 0 0
10 12 11 7 8 9 7 6 1 4 140 148 130 81 56 67 27 8 6 0 0 0
7 13 11 9 7 9 7 5 2 4 101 114 144 124 96 106 51 16 3 0 0 0
2 8 9 8 7 9 9 5 4 4 1 116 67 99 109 89 49 25 6 7 0 0
6 7 9 6 6 7 7 6 8 4 0 32 67 72 88 50 4 18 4 0 0 0
5 4 4 7 6 4 5 5 8 3 4 1 15 36 47 10 1 7 3 0 0 0
3 4 11 10 7 8 3 2 4 3 3 3 4 18 11 0 0 0 0 0 0 0
3 9 6 7 8 8 7 4 2 4 0 2 3 6 4 2 0 0 0 0 0 0
2 3 4 9 5 8 7 5 2 3 1 2 4 9 4 0 0 0 0 0 0 0
1 2 1 4 8 5 3 4 6 3 3 0 1 15 15 0 0 0 0 0 0 0
2 1 0 1 2 5 3 2 4 4 5 1 2 13 16 2 0 0 0 0 0 0
2 1 1 1 2 3 4 1 1 4 2 1 0 9 16 1 0 0 0 0 0 0
1 2 2 0 1 2 1 1 1 2 1 1 0 3 7 6 0 0 0 0 0 0
1 1 0 0 0 1 1 0 0 0 0 0 0 1 3 5 0 2 0 0 0 0